Regional Weather Roundup
Issued by NWS Albany, NY

Home | Current Version | Previous Version | Text Only | Print | Product List | Glossary On
Versions: 1 2 3 4 5 6 7 8 9 10 11 12 13 14 15 16 17 18 19 20 21 22 23 24 25 26 27 28 29 30 31 32 33 34 35 36 37 38 39 40 41 42 43 44 45 46 47 48 49 50
000
ASUS41 KALY 311310
RWRALY

NEW YORK STATE HOURLY WEATHER ROUNDUP
NATIONAL WEATHER SERVICE ALBANY NY
800 AM EST SAT JAN 31 2015

NOTE: "FAIR" INDICATES FEW OR NO CLOUDS BELOW 12,000 FEET WITH NO
SIGNIFICANT WEATHER AND/OR NO OBSTRUCTIONS TO VISIBILITY.

NYZ032-033-038>043-046>054-057>066-NYZ062>081-311400-
EAST


CITY           SKY/WX    TMP DP  RH WIND       PRES   REMARKS
ALBANY         PTCLDY     0 -13  54 W15G21    30.19R WCI -19
GLENS FALLS    PTCLDY    -1 -14  53 N9        30.17R WCI -16
POUGHKEEPSIE   CLEAR      9 -11  40 N10       30.13R WCI  -5
NEWBURGH       CLEAR      3  -8  60 NW8       30.10S WCI -10
MONTGOMERY     CLEAR      9  -9  44 NW18G28   30.09F WCI -10
WHITE PLAINS   CLEAR     10  -7  46 NW22G30   30.02S WCI -10
ISLIP          PTCLDY    13  -3  49 NW29G45   30.00R WCI  -8
NEW YORK CITY  PTCLDY    14   0  53 NW23G36   30.11R WCI  -5
CENTRAL PARK   CLEAR     13  -5  44 NW15G29   30.11F WCI  -3
$$

NYZ005>009-017-018-044>046-055-056-311400-
CENTRAL


CITY           SKY/WX    TMP DP  RH WIND       PRES   REMARKS
FULTON         CLOUDY    -4 -10  75 CALM      30.31R
SYRACUSE       PTCLDY    -7 -10  87 CALM      30.30S
ROME           MOCLDY    -9 -13  83 NW5       30.30R WCI -20
ELMIRA         CLEAR      0  -3  87 W6        30.26R WCI -12
BINGHAMTON     CLEAR      2  -3  80 NW13      30.13R WCI -15
MONTICELLO     CLEAR      1  -6  71 NW15G25   30.06R WCI -18
$$

NYZ026>034-041>043-311400-
NORTH


CITY           SKY/WX    TMP DP  RH WIND       PRES   REMARKS
WATERTOWN        N/A    N/A N/A N/A MISG      30.32S
FORT DRUM      NOT AVBL
MASSENA        MOCLDY   -13 -19  75 SW6       30.31R WCI -27
SARANAC LAKE     N/A    -17 -20  86 MISG      30.06S
PLATTSBURGH    PTCLDY    -6 -14  68 CALM      30.21R
$$

NYZ001>004-010>016-019>021-311400-
WEST


CITY           SKY/WX    TMP DP  RH WIND       PRES   REMARKS
NIAGARA FALLS  LGT SNOW   9   5  84 CALM      30.31S FOG
BUFFALO        LGT SNOW  10   6  84 S6        30.30F FOG     WCI   0
DUNKIRK        CLOUDY    14   8  77 SW9       30.33R WCI   2
JAMESTOWN      CLOUDY     9   3  78 SW9       30.22S WCI  -5
WELLSVILLE     FLURRIES   8   2  76 NW12      30.17R WCI  -7
ROCHESTER      CLOUDY     7   2  80 W7        30.32R WCI  -5
PENN YAN       CLOUDY     8   1  73 VRB5      30.27R WCI   0
$$

             KEY
       WCI = WIND CHILL INDEX
       VSB = VISIBILITY
       HX  = HEAT INDEX
$$



USA.gov is the U.S. government's official web portal to all federal, state and local government web resources and services.